This is the latest recevied weather packets stored in our database for station/object KC9NPJ-13. If no packets are shown the sender has not sent any weather packets the latest 10 day(s).
| Time | Temp. | Humidity | Pressure | Rain* | Wind** | Luminosity | Snow |
|---|---|---|---|---|---|---|---|
| 1777919345 | 22.78° C | 54% | 1007.4 hPa | 0 mm | - | - | - |
| 1777919045 | 22.78° C | 55% | 1007.3 hPa | 0 mm | - | - | - |
| 1777918745 | 22.78° C | 56% | 1007.3 hPa | 0 mm | - | - | - |
| 1777918445 | 23.33° C | 54% | 1007.4 hPa | 0 mm | - | - | - |
| 1777918145 | 23.33° C | 53% | 1007.5 hPa | 0 mm | - | - | - |
| 1777917845 | 23.33° C | 54% | 1007.7 hPa | 0 mm | - | - | - |
| 1777917545 | 23.33° C | 56% | 1007.7 hPa | 0 mm | - | - | - |
| 1777917245 | 23.33° C | 57% | 1007.8 hPa | 0 mm | - | - | - |
| 1777916945 | 23.33° C | 57% | 1007.8 hPa | 0 mm | - | - | - |
| 1777916645 | 23.33° C | 56% | 1007.8 hPa | 0 mm | - | - | - |
| 1777916345 | 23.33° C | 56% | 1007.8 hPa | 0 mm | - | - | - |
| 1777916045 | 23.33° C | 56% | 1007.9 hPa | 0 mm | - | - | - |
| 1777915745 | 23.33° C | 55% | 1007.9 hPa | 0 mm | - | - | - |
| 1777915445 | 23.33° C | 56% | 1008.1 hPa | 0 mm | - | - | - |
| 1777915145 | 23.33° C | 55% | 1008.2 hPa | 0 mm | - | - | - |
| 1777914845 | 23.33° C | 57% | 1008.4 hPa | 0 mm | - | - | - |
| 1777914545 | 23.89° C | 55% | 1008.6 hPa | 0 mm | - | - | - |
| 1777914245 | 23.89° C | 55% | 1008.9 hPa | 0 mm | - | - | - |
| 1777913945 | 23.89° C | 58% | 1008.9 hPa | 0 mm | - | - | - |
| 1777913645 | 23.33° C | 60% | 1008.8 hPa | 0 mm | - | - | - |
| 1777913345 | 23.33° C | 59% | 1008.8 hPa | 0 mm | - | - | - |
| 1777913045 | 22.78° C | 57% | 1009 hPa | 0 mm | - | - | - |
| 1777912745 | 22.78° C | 58% | 1009 hPa | 0 mm | - | - | - |
| 1777912445 | 22.78° C | 57% | 1009.1 hPa | 0 mm | - | - | - |
| 1777912145 | 23.33° C | 58% | 1009.3 hPa | 0 mm | - | - | - |
* Rain latest hour (hover to see other rain measurements)
** Current wind speed in m/s (hover to see current wind gust speed)